Weather History for KOUN - August, 2013

Change the Weather History Date:

Thursday, August 8, 2013

  Actual Average Record
Temperature  
Mean Temperature 78 °F -  
Max Temperature 87 °F 96 °F 106 °F (1951)
Min Temperature 69 °F 70 °F 37 °F (2002)
Cooling Degree Days 13    
Growing Degree Days 28 (Base 50)    
Moisture  
Dew Point 74 °F    
Average Humidity 87    
Maximum Humidity 100    
Minimum Humidity 62    
Precipitation  
Precipitation 0.12 in - - ()
Sea Level Pressure  
Sea Level Pressure 29.89 in    
Wind  
Wind Speed 9 mph (ENE)    
Max Wind Speed 16 mph    
Max Gust Speed 24 mph    
Visibility 10 miles    
Events Rain , Thunderstorm    
Averages and records for this station are not official NWS values.
T = Trace of Precipitation, MM = Missing Value Source: NWS Daily Summary

Daily Weather History Graph

Daily Weather History Graph

Search for Another Location

Airport or City:

Trip Planner

Search our weather history database for the weather conditions in past years. The results will help you decide how hot, cold, wet, or windy it might be!

Date:

Astronomy

Aug. 08, 2013 Rise Set
Actual Time 6:44 AM CDT 8:26 PM CDT
Civil Twilight 6:16 AM CDT 8:53 PM CDT
Nautical Twilight 5:43 AM CDT 9:26 PM CDT
Astronomical Twilight 5:08 AM CDT 10:01 PM CDT
Moon 8:26 AM CDT (8/8) 9:12 PM CDT (8/8)
Length of Visible Light 14h 36m
Length of Day
13h 41m
Waxing Crescent, 3% of the Moon is Illuminated
Aug 8
Waxing Crescent
Aug 14
First Quarter
Aug 20
Full
Aug 28
Last Quarter
Sep 5
New

Hourly Weather History & Observations

Time (CDT) Temp. Heat Index Dew Point Humidity Pressure Visibility Wind Dir Wind Speed Gust Speed Precip Events Conditions
12:15 AM 80.6 °F 87.1 °F 77.0 °F 89% 29.84 in 10.0 mi ENE 12.7 mph - N/A   Scattered Clouds
12:35 AM 80.6 °F 87.1 °F 77.0 °F 89% 29.84 in 10.0 mi East 15.0 mph - N/A Thunderstorm Mostly Cloudy
12:55 AM 80.6 °F 87.1 °F 77.0 °F 89% 29.84 in 10.0 mi East 11.5 mph 23.0 mph N/A   Overcast
1:15 AM 80.6 °F 87.1 °F 77.0 °F 89% 29.85 in 10.0 mi East 8.1 mph - N/A   Mostly Cloudy
1:35 AM 80.6 °F 86.2 °F 75.2 °F 84% 29.85 in 7.0 mi SE 15.0 mph 23.0 mph 0.02 in Rain , Thunderstorm Heavy Thunderstorms and Rain
1:55 AM 78.8 °F - 75.2 °F 89% 29.85 in 10.0 mi SSE 3.5 mph - 0.02 in Rain Rain
2:15 AM 77.0 °F - 75.2 °F 94% 29.87 in 10.0 mi South 5.8 mph - N/A Thunderstorm Overcast
2:35 AM 77.0 °F - 75.2 °F 94% 29.87 in 10.0 mi WNW 6.9 mph - 0.02 in Rain , Thunderstorm Light Thunderstorms and Rain
2:55 AM 75.2 °F - 73.4 °F 94% 29.87 in 10.0 mi ENE 3.5 mph - 0.02 in Thunderstorm Overcast
3:15 AM 77.0 °F - 73.4 °F 89% 29.87 in 10.0 mi ENE 3.5 mph - N/A Rain Light Rain
3:35 AM 73.4 °F - 73.4 °F 100% 29.87 in 10.0 mi North 8.1 mph - 0.02 in Rain , Thunderstorm Rain
3:55 AM 73.4 °F - 73.4 °F 100% 29.88 in 10.0 mi Calm Calm - 0.03 in   Light Drizzle
4:15 AM 73.4 °F - 73.4 °F 100% 29.89 in 10.0 mi North 3.5 mph - N/A   Clear
4:35 AM 73.4 °F - 73.4 °F 100% 29.89 in 10.0 mi NNW 5.8 mph - N/A   Clear
5:15 AM 71.6 °F - 71.6 °F 100% 29.87 in 10.0 mi North 15.0 mph 24.2 mph N/A   Mostly Cloudy
5:35 AM 69.8 °F - 69.8 °F 100% 29.87 in 10.0 mi NNE 13.8 mph 24.2 mph N/A   Mostly Cloudy
6:15 AM 69.8 °F - 69.8 °F 100% 29.87 in 10.0 mi NNE 5.8 mph - N/A   Clear
6:35 AM 69.8 °F - 69.8 °F 100% 29.87 in 10.0 mi NNE 4.6 mph - N/A   Clear
7:15 AM 69.8 °F - 69.8 °F 100% 29.91 in 10.0 mi NNE 6.9 mph - N/A   Clear
7:35 AM 69.8 °F - 69.8 °F 100% 29.93 in 10.0 mi NNE 6.9 mph - N/A   Clear
7:55 AM 69.8 °F - 69.8 °F 100% 29.94 in 10.0 mi NE 6.9 mph - N/A   Clear
8:15 AM 69.8 °F - 69.8 °F 100% 29.94 in 10.0 mi ENE 4.6 mph - N/A   Clear
8:35 AM 71.6 °F - 69.8 °F 94% 29.94 in 10.0 mi ENE 8.1 mph - N/A   Clear
8:55 AM 69.8 °F - 69.8 °F 100% 29.95 in 10.0 mi ENE 6.9 mph - N/A   Clear
9:15 AM 69.8 °F - 69.8 °F 100% 29.95 in 10.0 mi East 8.1 mph - N/A   Clear
9:35 AM 71.6 °F - 69.8 °F 94% 29.95 in 10.0 mi ENE 8.1 mph - N/A   Clear
9:55 AM 71.6 °F - 69.8 °F 94% 29.96 in 10.0 mi East 10.4 mph - N/A   Scattered Clouds
10:15 AM 71.6 °F - 69.8 °F 94% 29.95 in 10.0 mi ENE 9.2 mph - N/A   Mostly Cloudy
10:35 AM 71.6 °F - 69.8 °F 94% 29.95 in 10.0 mi ENE 6.9 mph - N/A   Scattered Clouds
10:55 AM 73.4 °F - 71.6 °F 94% 29.95 in 10.0 mi East 9.2 mph - N/A Rain Light Rain
11:15 AM 73.4 °F - 71.6 °F 94% 29.94 in 10.0 mi East 10.4 mph - N/A   Clear
11:35 AM 75.2 °F - 71.6 °F 89% 29.94 in 10.0 mi East 8.1 mph - N/A   Clear
11:55 AM 75.2 °F - 71.6 °F 89% 29.93 in 10.0 mi East 8.1 mph - N/A   Clear
12:15 PM 77.0 °F - 71.6 °F 83% 29.92 in 10.0 mi East 11.5 mph - N/A   Clear
12:35 PM 78.8 °F - 73.4 °F 83% 29.92 in 10.0 mi ESE 9.2 mph - N/A   Clear
12:55 PM 78.8 °F - 73.4 °F 83% 29.92 in 10.0 mi SE 9.2 mph - N/A   Scattered Clouds
1:15 PM 78.8 °F - 73.4 °F 83% 29.92 in 10.0 mi ESE 10.4 mph - N/A   Clear
1:35 PM 80.6 °F 85.4 °F 73.4 °F 79% 29.92 in 10.0 mi ESE 6.9 mph - N/A   Scattered Clouds
1:55 PM 80.6 °F 85.4 °F 73.4 °F 79% 29.91 in 10.0 mi ESE 5.8 mph - N/A   Scattered Clouds
2:15 PM 82.4 °F 89.5 °F 75.2 °F 79% 29.91 in 10.0 mi East 5.8 mph - N/A   Clear
2:35 PM 84.2 °F 92.3 °F 75.2 °F 74% 29.91 in 10.0 mi East 3.5 mph - N/A   Clear
2:55 PM 86.0 °F 96.9 °F 77.0 °F 74% 29.90 in 10.0 mi East 4.6 mph - N/A   Clear
3:15 PM 86.0 °F 96.9 °F 77.0 °F 74% 29.90 in 10.0 mi East 5.8 mph - N/A   Clear
3:35 PM 86.0 °F 96.9 °F 77.0 °F 74% 29.90 in 10.0 mi ENE 3.5 mph - N/A   Scattered Clouds
3:55 PM 84.2 °F 94.1 °F 77.0 °F 79% 29.90 in 10.0 mi ESE 5.8 mph - N/A   Scattered Clouds
4:15 PM 87.8 °F 99.7 °F 77.0 °F 70% 29.89 in 10.0 mi East 5.8 mph - N/A   Scattered Clouds
4:35 PM 87.8 °F 99.7 °F 77.0 °F 70% 29.89 in 10.0 mi ESE 3.5 mph - N/A   Clear
4:55 PM 87.8 °F 97.6 °F 75.2 °F 66% 29.88 in 10.0 mi NE 3.5 mph - N/A   Clear
5:15 PM 87.8 °F 97.6 °F 75.2 °F 66% 29.87 in 10.0 mi East 6.9 mph - N/A   Clear
5:35 PM 87.8 °F 97.6 °F 75.2 °F 66% 29.87 in 10.0 mi East 6.9 mph - N/A   Clear
5:55 PM 87.8 °F 95.6 °F 73.4 °F 62% 29.86 in 10.0 mi NE 5.8 mph - N/A   Clear
6:15 PM 87.8 °F 97.6 °F 75.2 °F 66% 29.85 in 10.0 mi ENE 5.8 mph - N/A   Clear
6:35 PM 87.8 °F 97.6 °F 75.2 °F 66% 29.84 in 10.0 mi NE 8.1 mph - N/A   Clear
6:55 PM 87.8 °F 97.6 °F 75.2 °F 66% 29.84 in 10.0 mi NNE 5.8 mph - N/A   Clear
7:15 PM 86.0 °F 99.3 °F 78.8 °F 79% 29.84 in 10.0 mi NNE 10.4 mph - N/A   Clear
7:35 PM 82.4 °F 92.4 °F 78.8 °F 89% 29.87 in 10.0 mi NNE 9.2 mph - N/A   Clear
7:55 PM 82.4 °F 90.9 °F 77.0 °F 84% 29.88 in 10.0 mi NNE 6.9 mph - N/A   Clear
8:15 PM 80.6 °F 87.1 °F 77.0 °F 89% 29.88 in 10.0 mi NE 5.8 mph - N/A   Clear
8:35 PM 80.6 °F 87.1 °F 77.0 °F 89% 29.88 in 10.0 mi NE 9.2 mph - N/A   Clear
8:55 PM 80.6 °F 87.1 °F 77.0 °F 89% 29.88 in 10.0 mi NE 6.9 mph - N/A   Clear
9:15 PM 78.8 °F - 77.0 °F 94% 29.88 in 10.0 mi NE 8.1 mph - N/A   Clear
9:35 PM 78.8 °F - 77.0 °F 94% 29.90 in 10.0 mi ENE 10.4 mph - N/A   Clear
9:55 PM 78.8 °F - 77.0 °F 94% 29.90 in 10.0 mi ENE 10.4 mph - N/A   Mostly Cloudy
10:15 PM 78.8 °F - 77.0 °F 94% 29.89 in 10.0 mi East 12.7 mph 16.1 mph N/A   Scattered Clouds
10:35 PM 78.8 °F - 77.0 °F 94% 29.90 in 10.0 mi ENE 10.4 mph - N/A   Clear
10:55 PM 78.8 °F - 77.0 °F 94% 29.88 in 10.0 mi ENE 9.2 mph - N/A Thunderstorm Mostly Cloudy
11:15 PM 78.8 °F - 77.0 °F 94% 29.88 in 10.0 mi ENE 10.4 mph - N/A   Overcast
11:35 PM 78.8 °F - 75.2 °F 89% 29.90 in 10.0 mi East 8.1 mph - N/A Thunderstorm Overcast
11:55 PM 75.2 °F - 71.6 °F 89% 29.94 in 7.0 mi West 16.1 mph 20.7 mph 0.05 in Rain , Thunderstorm Thunderstorms and Rain